Location: Unspecified
(0.0000°N, 0.0000°E)
Time: 19:24:00
(UTC+00:00)

A-11 Canister half - Pass Details

Date: 27 November 2019
Orbit: 1515 x 1685 km, 47.2° (Epoch: 08 December)

Event Time Altitude Azimuth Distance (km) Brightness Sun altitude
Rises 23:50:08 0° 330° (NNW) 4,901 - -69.0°
Reaches altitude 10° 23:53:26 10° 334° (NNW) 3,899 - -68.9°
Maximum altitude 00:03:07 56° 50° (NE) 1,883 - -68.6°
Drops below altitude 10° 00:12:28 10° 126° (SE) 3,781 - -68.1°
Exits shadow 00:14:35 - 129° (SE) 4,431 11.6 -67.9°
Sets 00:15:35 0° 130° (SE) 4,744 11.8 -67.9°
